Hourly Data Report for October 12, 2015

All times are specified in Local Standard Time (LST). Add 1 hour to adjust for Daylight Saving Time where and when it is observed.

PENTICTON A
BRITISH COLUMBIA

49°27'45.000" N
119°36'08.000" W
344.40 m
1126146
71889
YYF

Download Data

Hourly Data (October 2015)
Hourly Data Report for October 12, 2015
Temp Definition
°C
Dew Point Temp Definition
°C
Rel Hum Definition
%
Wind Dir Definition
10's deg

Wind Spd Definition
km/h
Visibility Definition
km
Stn Press Definition
kPa
Hmdx Definition


Wind Chill Definition


Weather Definition


TIME
00:00 Legend Double Dagger 9.1 2.7 64 3 8 24.1 97.70     LegendNANA
01:00 Legend Double Dagger 10.8 2.9 58 31 4 24.1 97.69     Mostly Cloudy
02:00 Legend Double Dagger 9.4 3.4 66 2 6 24.1 97.67     LegendNANA
03:00 Legend Double Dagger 7.8 3.5 74 36 3 24.1 97.62     LegendNANA
04:00 Legend Double Dagger 7.0 3.1 76 1 7 24.1 97.59     Mostly Cloudy
05:00 Legend Double Dagger 6.8 4.5 85 15 7 24.1 97.55     LegendNANA
06:00 Legend Double Dagger 6.0 3.3 83 36 2 24.1 97.55     LegendNANA
07:00 Legend Double Dagger 8.1 4.7 79 2 4 24.1 97.53     Mostly Cloudy
08:00 Legend Double Dagger 12.7 5.9 63 35 11 24.1 97.57     LegendNANA
09:00 Legend Double Dagger 15.5 3.1 43 16 14 24.1 97.57     LegendNANA
10:00 Legend Double Dagger 15.7 5.1 49 27 4 24.1 97.58     Mostly Cloudy
11:00 Legend Double Dagger 17.1 2.8 38 17 12 24.1 97.58     LegendNANA
12:00 Legend Double Dagger 19.1 2.6 33 18 22 24.1 97.48     LegendNANA
13:00 Legend Double Dagger 18.4 2.4 34 16 17 24.1 97.47     Mostly Cloudy
14:00 Legend Double Dagger 18.4 4.7 40 14 9 24.1 97.52     LegendNANA
15:00 Legend Double Dagger 16.5 6.1 50 1 22 24.1 97.57     LegendNANA
16:00 Legend Double Dagger 15.1 5.7 53 36 16 24.1 97.59     Mostly Cloudy
17:00 Legend Double Dagger 14.3 7.6 64 29 8 24.1 97.63     LegendNANA
18:00 Legend Double Dagger 14.1 7.9 66 36 13 24.1 97.68     LegendNANA
19:00 Legend Double Dagger 13.9 8.2 68 35 13 24.1 97.75     Mostly Cloudy
20:00 Legend Double Dagger 13.8 7.4 65 2 12 24.1 97.77     LegendNANA
21:00 Legend Double Dagger 13.5 7.6 67 2 12 24.1 97.80     LegendNANA
22:00 Legend Double Dagger 12.7 7.4 70 3 6 24.1 97.85     Mostly Cloudy
23:00 Legend Double Dagger 12.5 7.2 70 36 5 24.1 97.86     Rain

Notes on Data Quality.

Legend

  • E = Estimated
  • M = Missing
  • NA = Not Available
  • ‡ = Partner data that is not subject to review by the National Climate Archives
Date modified: